Flag for Bangladesh Weather past 2 weeks in Jessore, Bangladesh

Now
52 °F

Fog.


Feels Like: 52 °F
Forecast: 71 / 88 °F
Wind: No wind

Location: Kunming Airport

Current Time: Oct 23, 2014 at 4:37:33 AM

Latest Report: Oct 23, 2014 at 4:00 AM


Visibility: 2 mi

Pressure: 30.30 "Hg

Humidity: 100%

Dew point: 52 °F

Location of JessoreLocation

Historic Weather in Jessore — Graph

°F

Jessore temperature yesterday

Maximum temperature yesterday: 70 °F (at 2:00 PM)
Minimum temperature yesterday: 50 °F (at 5:00 AM)
Average temperature yesterday: 58 °F

Past Weeks' High & Low Weather Summary

 TemperatureHumidityPressure
High73 °F (Oct 9, 2:00 PM)100% (Oct 9, 5:00 AM)30.45 "Hg (Oct 9, 5:00 AM)
Low46 °F (Oct 8, 4:00 AM)35% (Oct 21, 2:00 PM)30.09 "Hg (Oct 9, 3:00 PM)
Average59 °F86%30.26 "Hg
* Reported Oct 8 3:00 AM — Oct 23 3:00 AM, Jessore, Weather by CustomWeather, © 2014

Note: Actual official high and low records may vary slightly from our data, if they occured in-between our weather recording intervals... More about our weather records

Advertising

Jessore weather history for previous 24 hours

 ConditionsComfort  
Time TempWeatherWind HumidityBarometerVisibility
3:00 AM
Oct 23
50 °FFog.1 mph100%30.30 "Hg2 mi
2:00 AM52 °FFog.No wind100%30.30 "Hg2 mi
1:00 AM52 °FFog.No wind100%30.30 "Hg2 mi
12:00 AM52 °FFog.1 mph100%30.33 "Hg2 mi
11:00 PM
Oct 22
52 °FFog.1 mph100%30.33 "Hg3 mi
10:00 PM54 °FFog.1 mph100%30.33 "Hg3 mi
9:00 PM55 °FFog.8 mph94%30.33 "Hg3 mi
8:00 PM57 °FClear.8 mph88%30.33 "Hg10 mi
7:00 PM61 °FPassing clouds.10 mph68%30.30 "HgN/A
6:00 PM61 °FClear.8 mph63%30.27 "Hg10 mi
5:00 PM61 °FPassing clouds.3 mph63%30.27 "HgN/A
4:00 PM66 °FScattered clouds.10 mph46%30.24 "HgN/A
3:00 PM68 °FScattered clouds.10 mph40%30.24 "HgN/A
2:00 PM70 °FScattered clouds.10 mph43%30.27 "HgN/A
1:00 PM68 °FScattered clouds.10 mph46%30.30 "HgN/A
12:00 PM66 °FScattered clouds.8 mph49%30.33 "HgN/A
11:00 AM66 °FPartly sunny.10 mph56%30.36 "HgN/A
10:00 AM64 °FScattered clouds.8 mph56%30.39 "HgN/A
9:00 AM63 °FScattered clouds.3 mph73%30.45 "HgN/A
8:00 AM59 °FBroken clouds.1 mph88%30.45 "Hg5 mi
7:00 AM54 °FFog.3 mph100%30.42 "Hg2 mi
6:00 AM50 °FFog.No wind100%30.42 "Hg1 mi
5:00 AM50 °FFog.3 mph100%30.39 "Hg2 mi
4:00 AM52 °FFog.3 mph100%30.39 "Hg3 mi
Weather by CustomWeather, © 2014

See weather overviewHow to use our weather pages